ISOUTHCR7 Weather Reports


Display with metric or nautical units.
time (UTC)temp
F
wind
direction
speed
MPH
gust
MPH
rain 1hr
in
rain 24hr
in
rain mn
in
humidity
%
barometer
mb
20260507122652 56 188 2.0 10.0 0.00 0.00 0.00 63 1015.9
20260507121643 57 239 0.0 7.0 0.00 0.00 0.00 62 1015.9
20260507120611 56 244 2.0 7.0 0.00 0.00 0.00 63 1016.0
20260507115605 56 145 2.0 5.0 0.00 0.00 0.00 62 1016.1
20260507113525 58 111 4.0 10.0 0.00 0.00 0.00 59 1016.1
20260507112529 60 140 3.0 10.0 0.00 0.00 0.00 57 1016.1
20260507111512 59 215 4.0 10.0 0.00 0.00 0.00 61 1016.1
20260507110505 58 136 3.0 10.0 0.00 0.00 0.00 61 1016.2
20260507105442 58 144 4.0 9.0 0.00 0.00 0.00 61 1016.3
20260507104452 58 188 3.0 8.0 0.00 0.00 0.00 62 1016.3
20260507103510 58 155 3.0 8.0 0.00 0.00 0.00 61 1016.4
20260507102442 56 155 3.0 8.0 0.00 0.00 0.00 65 1016.4
20260507101452 55 136 2.0 8.0 0.00 0.00 0.00 65 1016.4
20260507100422 54 222 2.0 6.0 0.00 0.00 0.00 67 1016.4
20260507095425 54 191 3.0 8.0 0.00 0.00 0.00 69 1016.4
20260507094351 54 143 4.0 8.0 0.00 0.00 0.00 68 1016.5
20260507093321 54 127 4.0 8.0 0.00 0.00 0.00 68 1016.3
20260507092334 54 135 3.0 7.0 0.00 0.00 0.00 70 1016.3
20260507090134 53 147 4.0 7.0 0.00 0.00 0.00 70 1016.4
20260507085124 53 184 2.0 7.0 0.00 0.00 0.00 74 1016.4
20260507084120 52 184 1.0 5.0 0.00 0.00 0.00 73 1016.4
20260507083126 52 134 2.0 6.0 0.00 0.00 0.00 73 1016.4
20260507082059 52 169 3.0 8.0 0.00 0.00 0.00 72 1016.4
20260507081100 52 143 2.0 8.0 0.00 0.00 0.00 73 1016.4
20260507080122 52 159 3.0 8.0 0.00 0.00 0.00 75 1016.3
20260507075110 51 125 3.0 8.0 0.00 0.00 0.00 77 1016.3
20260507074103 50 169 2.0 7.0 0.00 0.00 0.00 80 1016.2
20260507073053 50 146 2.0 7.0 0.00 0.00 0.00 81 1016.1
20260507072115 49 150 2.0 7.0 0.00 0.00 0.00 80 1016.1
20260507071047 49 145 3.0 6.0 0.00 0.00 0.00 81 1016.0
20260507070048 48 136 3.0 6.0 0.00 0.00 0.00 83 1016.0
20260507065109 48 133 2.0 4.0 0.00 0.00 0.00 84 1016.0
20260507064127 48 147 2.0 4.0 0.00 0.00 0.00 86 1016.0
20260507061933 47 94 0.0 2.0 0.00 0.00 0.00 87 1016.0
20260507060925 47 62 0.0 0.0 0.00 0.01 0.00 87 1016.0
20260507055913 47 62 0.0 0.0 0.00 0.03 0.00 87 1015.9
20260507054925 47 61 0.0 0.0 0.00 0.03 0.00 87 1015.7
20260507053909 47 61 0.0 0.0 0.00 0.03 0.00 87 1015.7
20260507052853 46 61 0.0 0.0 0.00 0.03 0.00 87 1015.6
20260507051911 46 61 0.0 0.0 0.00 0.03 0.00 87 1015.5
20260507050902 46 61 0.0 0.0 0.00 0.03 0.00 87 1015.4
20260507044757 46 61 0.0 0.0 0.00 0.03 0.00 87 1015.4
20260507043754 46 61 0.0 0.0 0.00 0.03 0.00 87 1015.4
20260507042811 46 61 0.0 0.0 0.00 0.03 0.00 87 1015.3
20260507041816 46 61 0.0 0.0 0.00 0.03 0.00 87 1015.2
20260507040815 46 61 0.0 0.0 0.00 0.03 0.00 87 1015.2
20260507035828 46 61 0.0 0.0 0.00 0.03 0.00 87 1015.1
20260507034831 46 65 0.0 0.0 0.00 0.03 0.00 87 1015.2
20260507033839 46 65 0.0 0.0 0.00 0.03 0.00 87 1015.1
20260507032826 46 65 0.0 0.0 0.00 0.03 0.00 87 1015.1
20260507025422 46 65 0.0 0.0 0.00 0.03 0.00 86 1015.0
20260507024358 47 65 0.0 0.0 0.00 0.03 0.00 86 1014.9
20260507023340 47 65 0.0 0.0 0.00 0.03 0.00 86 1014.9
20260507022344 47 65 0.0 0.0 0.00 0.03 0.00 86 1014.9
20260507020156 47 65 0.0 0.0 0.00 0.03 0.00 85 1014.9
20260507014020 47 65 0.0 0.0 0.00 0.03 0.00 85 1014.8
20260507013011 47 65 0.0 0.0 0.00 0.03 0.00 85 1014.8
20260507012022 47 65 0.0 0.0 0.00 0.03 0.00 84 1014.8
20260507010949 48 65 0.0 0.0 0.00 0.03 0.00 85 1014.9
20260507005948 48 65 0.0 0.0 0.00 0.03 0.00 84 1014.9
20260507004956 48 65 0.0 0.0 0.00 0.03 0.00 84 1014.9
20260507004005 48 65 0.0 1.0 0.00 0.03 0.00 84 1014.9
20260507001836 48 65 0.0 0.0 0.00 0.03 0.00 83 1014.9
20260507000842 48 65 1.0 3.0 0.00 0.03 0.00 83 1015.0
20260506235840 48 63 1.0 5.0 0.00 0.03 0.00 83 1015.0
20260506233647 48 74 2.0 6.0 0.00 0.03 0.00 83 1015.0
20260506232707 48 94 2.0 6.0 0.00 0.03 0.00 83 1014.9
20260506231701 48 65 2.0 6.0 0.00 0.03 0.00 83 1014.9
20260506230659 48 69 2.0 6.0 0.00 0.03 0.00 83 1014.8
20260506225718 48 70 2.0 7.0 0.00 0.03 0.03 83 1014.9
20260506224655 48 87 2.0 7.0 0.00 0.03 0.03 83 1014.9
20260506223702 48 69 2.0 6.0 0.00 0.03 0.03 83 1015.0
20260506222723 48 55 2.0 6.0 0.00 0.03 0.03 83 1015.0
20260506221744 48 65 2.0 6.0 0.00 0.03 0.03 83 1014.9
20260506215629 48 61 2.0 7.0 0.00 0.03 0.03 83 1015.0
20260506213409 48 66 2.0 6.0 0.00 0.03 0.03 83 1014.8
20260506212412 48 82 3.0 8.0 0.00 0.03 0.03 83 1014.7
20260506211419 48 76 3.0 8.0 0.00 0.03 0.03 83 1014.6
20260506210349 48 57 3.0 8.0 0.00 0.03 0.03 83 1014.5
20260506205329 48 68 3.0 8.0 0.00 0.03 0.03 84 1014.5
20260506204343 48 86 3.0 8.0 0.00 0.03 0.03 84 1014.5
20260506203401 48 73 4.0 9.0 0.00 0.03 0.03 84 1014.5
20260506202331 48 70 4.0 9.0 0.00 0.03 0.03 84 1014.5
20260506201353 48 68 4.0 10.0 0.00 0.03 0.03 84 1014.4
20260506195206 48 38 4.0 10.0 0.00 0.03 0.03 85 1014.3
20260506194158 48 63 4.0 10.0 0.00 0.03 0.03 86 1014.2
20260506193153 48 49 3.0 8.0 0.00 0.03 0.03 86 1014.1
20260506190938 48 36 3.0 10.0 0.00 0.03 0.03 86 1014.0
20260506182537 48 53 3.0 10.0 0.00 0.03 0.03 87 1013.7
20260506181544 48 50 3.0 9.0 0.00 0.03 0.03 87 1013.6
20260506180520 48 49 3.0 8.0 0.00 0.03 0.03 87 1013.4
20260506175503 48 49 3.0 8.0 0.00 0.03 0.03 87 1013.3
20260506174447 48 65 2.0 10.0 0.00 0.03 0.03 87 1013.3
20260506173416 49 44 3.0 10.0 0.00 0.03 0.03 87 1013.3
20260506172348 49 22 3.0 8.0 0.00 0.03 0.03 87 1013.2
20260506171336 49 46 3.0 9.0 0.00 0.03 0.03 87 1013.2
20260506165232 49 67 5.0 11.0 0.00 0.03 0.03 86 1013.0
20260506164233 49 64 5.0 14.0 0.00 0.03 0.03 86 1013.0
20260506163227 50 69 8.0 14.0 0.00 0.03 0.03 86 1013.0
20260506161108 51 67 5.0 11.0 0.00 0.03 0.03 85 1013.0
20260506160113 51 38 5.0 14.0 0.00 0.03 0.03 85 1012.9
20260506155120 51 29 6.0 14.0 0.00 0.03 0.03 85 1012.9
20260506154051 52 40 5.0 13.0 0.00 0.03 0.03 84 1012.8
20260506153043 52 65 5.0 13.0 0.00 0.03 0.03 85 1012.7
20260506152037 52 44 5.0 11.0 0.00 0.03 0.03 85 1012.7
20260506151008 51 56 5.0 12.0 0.00 0.03 0.03 85 1012.7
20260506150032 52 27 5.0 12.0 0.00 0.03 0.03 86 1012.6
20260506143935 52 38 4.0 10.0 0.00 0.03 0.03 86 1012.7
20260506142957 51 31 4.0 10.0 0.00 0.03 0.03 85 1012.6
20260506141928 51 65 5.0 11.0 0.00 0.03 0.03 85 1012.7
20260506140939 51 38 5.0 11.0 0.00 0.03 0.03 84 1012.7
20260506134822 52 32 5.0 12.0 0.00 0.03 0.03 82 1012.7
20260506132602 52 42 6.0 16.0 0.00 0.03 0.03 82 1012.6
20260506131552 53 44 7.0 16.0 0.00 0.03 0.03 81 1012.6
20260506130525 54 56 7.0 16.0 0.00 0.03 0.03 78 1012.6
20260506125517 54 337 6.0 11.0 0.00 0.03 0.03 79 1012.6
20260506123431 53 34 6.0 15.0 0.00 0.03 0.03 82 1012.6